Location: Newark
(45.5000°N, 11.4167°E)
Time: 13:00:18
(UTC+00:00)

Vanguard 3 - Visible Passes

Search period start: 12 August 2020 00:00
Search period end: 22 August 2020 00:00
Orbit: 509 x 3262 km, 33.4° (Epoch: 11 August)

Date Brightness Start Highest point End Pass type
(mag) Time Alt. Az. Time Alt. Az. Time Alt. Az.
12 Aug 11.2 00:44:36 11° SSE 00:52:15 14° SE 01:00:08 10° ESE visible
12 Aug 10.7 02:49:34 10° SSW 03:05:52 34° SSE 03:18:58 10° E visible
13 Aug 10.9 01:39:04 15° S 01:50:08 26° SE 02:02:59 10° E visible
14 Aug 11.0 00:28:56 15° SSE 00:34:44 17° SE 00:44:52 10° ESE visible
14 Aug 10.6 02:33:29 14° SSW 02:48:25 38° SSE 03:02:40 10° E visible
15 Aug 10.8 01:23:19 20° S 01:32:34 29° SE 01:46:40 10° E visible
15 Aug 10.4 03:28:43 10° SW 03:47:02 47° SSE 04:01:16 10° E visible
16 Aug 10.9 00:13:07 19° SSE 00:17:07 20° SE 00:28:54 10° E visible
16 Aug 10.5 02:17:38 19° SSW 02:30:52 41° SSE 02:46:10 10° E visible
16 Aug 11.2 23:02:53 10° SE 23:02:53 10° SE 23:05:04 10° ESE visible
17 Aug 10.6 01:07:24 25° S 01:14:55 32° SE 01:30:06 10° E visible
17 Aug 10.3 03:11:56 12° SW 03:29:34 50° SSE 03:44:47 10° E visible
17 Aug 10.8 23:57:08 22° SE 23:59:28 23° SE 00:12:29 10° E visible
18 Aug 10.4 02:01:40 24° SSW 02:13:15 44° SSE 02:29:30 10° E visible
18 Aug 11.1 22:46:52 12° ESE 22:46:52 12° ESE 22:51:11 10° ESE visible
19 Aug 10.4 00:51:22 30° S 00:57:13 35° SSE 01:13:18 10° E visible
19 Aug 10.3 02:55:53 16° SW 03:12:00 52° SSE 03:28:10 10° E visible
19 Aug 10.7 23:41:04 25° SE 23:41:47 25° SE 23:55:44 10° E visible
20 Aug 10.3 01:45:35 29° SSW 01:55:35 46° SSE 02:12:41 10° E visible
20 Aug 11.1 22:30:44 14° ESE 22:30:44 14° ESE 22:35:25 10° ESE visible
21 Aug 10.3 00:35:15 34° S 00:39:31 38° SSE 00:56:19 10° E visible
21 Aug 10.3 02:39:46 20° SW 02:54:24 54° S 03:11:24 10° E visible
21 Aug 10.6 23:24:55 27° SE 23:24:55 27° SE 23:38:44 10° E visible
